TimeCDT,TemperatureF,Dew PointF,Humidity,Sea Level PressureIn,VisibilityMPH,Wind Direction,Wind SpeedMPH,Gust SpeedMPH,PrecipitationIn,Events,Conditions,WindDirDegrees,DateUTC
12:53 AM,41.0,39.9,96,30.03,10.0,Calm,Calm,-,N/A,,Clear,0,2012-11-02 05:53:00
1:53 AM,42.1,39.0,89,30.03,10.0,Calm,Calm,-,N/A,,Clear,0,2012-11-02 06:53:00
2:53 AM,41.0,37.9,89,30.02,10.0,Calm,Calm,-,N/A,,Clear,0,2012-11-02 07:53:00
3:53 AM,39.0,37.0,93,30.03,10.0,Calm,Calm,-,N/A,,Clear,0,2012-11-02 08:53:00
4:53 AM,37.9,37.0,97,30.04,10.0,Calm,Calm,-,N/A,,Clear,0,2012-11-02 09:53:00
5:53 AM,39.0,36.0,89,30.05,10.0,Calm,Calm,-,N/A,,Clear,0,2012-11-02 10:53:00
6:53 AM,37.9,36.0,93,30.06,10.0,Calm,Calm,-,N/A,,Clear,0,2012-11-02 11:53:00
7:53 AM,43.0,39.9,89,30.06,10.0,Calm,Calm,-,N/A,,Clear,0,2012-11-02 12:53:00
8:53 AM,52.0,46.0,80,30.07,10.0,Calm,Calm,-,N/A,,Clear,0,2012-11-02 13:53:00
9:53 AM,61.0,48.0,62,30.08,10.0,Calm,Calm,-,N/A,,Clear,0,2012-11-02 14:53:00
10:53 AM,70.0,50.0,49,30.08,10.0,SW,10.4,-,N/A,,Clear,230,2012-11-02 15:53:00
11:53 AM,73.0,50.0,44,30.05,10.0,WSW,9.2,-,N/A,,Clear,240,2012-11-02 16:53:00
12:53 PM,75.9,52.0,43,30.02,10.0,WSW,9.2,-,N/A,,Clear,240,2012-11-02 17:53:00
1:53 PM,78.1,52.0,40,29.99,10.0,NW,8.1,-,N/A,,Clear,310,2012-11-02 18:53:00
2:53 PM,79.0,52.0,39,29.98,10.0,WSW,9.2,-,N/A,,Clear,250,2012-11-02 19:53:00
3:53 PM,79.0,54.0,42,29.98,10.0,SW,5.8,-,N/A,,Clear,220,2012-11-02 20:53:00
4:53 PM,78.1,52.0,40,29.98,10.0,WNW,3.5,-,N/A,,Clear,290,2012-11-02 21:53:00
5:53 PM,73.9,52.0,46,29.99,10.0,Calm,Calm,-,N/A,,Clear,0,2012-11-02 22:53:00
6:53 PM,63.0,54.0,72,30.00,10.0,Calm,Calm,-,N/A,,Clear,0,2012-11-02 23:53:00
7:53 PM,61.0,54.0,78,30.02,10.0,Calm,Calm,-,N/A,,Clear,0,2012-11-03 00:53:00
8:53 PM,57.0,53.1,87,30.02,10.0,Calm,Calm,-,N/A,,Clear,0,2012-11-03 01:53:00
9:53 PM,55.0,52.0,89,30.04,10.0,Calm,Calm,-,N/A,,Clear,0,2012-11-03 02:53:00
10:53 PM,54.0,51.1,90,30.04,9.0,Calm,Calm,-,N/A,,Clear,0,2012-11-03 03:53:00
11:53 PM,52.0,50.0,93,30.04,10.0,Calm,Calm,-,N/A,,Clear,0,2012-11-03 04:53:00